Date,TemperatureHighF,TemperatureAvgF,TemperatureLowF,DewpointHighF,DewpointAvgF,DewpointLowF,HumidityHigh,HumidityAvg,HumidityLow,PressureMaxIn,PressureMinIn,WindSpeedMaxMPH,WindSpeedAvgMPH,GustSpeedMaxMPH,PrecipitationSumIn
2013-4-1,60.0,44.8,34.0,0.0,0.0,0.0,0,0,100,29.83,29.45,17,2,21,0.18
2013-4-2,40.0,33.5,28.0,0.0,0.0,0.0,0,0,100,29.98,29.83,17,4,23,0.39
2013-4-3,43.0,35.1,29.0,0.0,0.0,0.0,0,0,100,30.22,29.96,18,7,20,0.01
2013-4-4,57.0,41.6,28.0,0.0,0.0,0.0,0,0,100,30.31,30.00,10,1,17,0.00
2013-4-5,62.0,45.9,36.0,0.0,0.0,0.0,0,0,100,30.01,29.60,15,3,19,0.00
2013-4-6,49.0,39.5,31.0,0.0,0.0,0.0,0,0,100,30.28,29.90,12,2,17,0.02
2013-4-7,56.0,43.1,28.0,0.0,0.0,0.0,0,0,100,30.29,29.90,13,2,19,0.00
2013-4-8,58.0,46.1,40.0,0.0,0.0,0.0,0,0,100,30.02,29.92,7,0,11,0.00
2013-4-9,68.0,62.0,49.0,0.0,0.0,0.0,0,0,100,29.92,29.79,12,2,18,0.05
2013-4-10,69.0,57.5,49.0,0.0,0.0,0.0,0,0,100,29.92,29.72,0,0,6,0.09
2013-4-11,54.0,48.9,39.0,0.0,0.0,0.0,0,0,100,30.10,29.77,8,1,13,0.04
2013-4-12,41.0,38.7,37.0,0.0,0.0,0.0,0,0,100,30.11,29.77,12,1,13,0.57
2013-4-13,53.0,44.8,35.0,0.0,0.0,0.0,0,0,100,29.89,29.75,8,1,12,0.05
2013-4-14,51.0,44.6,36.0,0.0,0.0,0.0,0,0,100,30.21,29.86,15,3,19,0.00
2013-4-15,61.0,46.8,32.0,0.0,0.0,0.0,0,0,100,30.34,30.19,6,0,8,0.00
2013-4-16,67.0,52.2,38.0,0.0,0.0,0.0,0,0,100,30.35,30.00,10,2,15,0.00
2013-4-17,67.0,57.6,50.0,0.0,0.0,0.0,0,0,100,30.26,30.02,11,2,14,0.01
2013-4-18,63.0,53.6,40.0,0.0,0.0,0.0,0,0,100,30.35,30.06,8,1,14,0.00
2013-4-19,73.0,61.6,53.0,0.0,0.0,0.0,0,0,100,30.06,29.55,11,2,18,0.08
2013-4-20,63.0,50.9,40.0,0.0,0.0,0.0,0,0,100,30.24,29.53,12,4,18,0.65
2013-4-21,54.0,43.4,33.0,0.0,0.0,0.0,0,0,100,30.61,30.25,14,2,18,0.04
2013-4-22,57.0,45.5,35.0,0.0,0.0,0.0,0,0,100,30.68,30.47,12,3,17,0.00
2013-4-23,44.0,41.3,38.0,0.0,0.0,0.0,0,0,100,30.53,30.08,10,2,13,0.00
2013-4-24,76.0,56.0,42.0,0.0,0.0,0.0,0,0,100,30.08,29.67,9,1,14,0.00
2013-4-25,61.0,53.1,46.0,0.0,0.0,0.0,0,0,100,30.22,29.78,13,3,16,0.16
2013-4-26,67.0,53.4,38.0,0.0,0.0,0.0,0,0,100,30.34,30.20,8,1,10,0.00
2013-4-27,70.0,54.6,39.0,0.0,0.0,0.0,0,0,100,30.38,30.14,7,0,10,0.00
2013-4-28,72.0,57.2,41.0,0.0,0.0,0.0,0,0,100,30.28,30.07,8,1,12,0.00
2013-4-29,67.0,57.0,50.0,0.0,0.0,0.0,0,0,100,30.20,30.10,8,0,10,0.00
2013-4-30,73.0,60.0,51.0,0.0,0.0,0.0,0,0,100,30.28,30.13,6,0,12,0.00